,,Stat5,,Stat1,,Stat2,,Stat3,,Stat4,,Wind1,,Wind1,
time,status,PA1M_AVG,status,PR1M_SUM,status,RH1M_AVG,status,SR1M_AVG,status,TA1M_AVG,status,W1dAve1m,status,W1sAve1m,
2000-06-30, 00:00:00,VALID,917.029,VALID,0,VALID,98.0852,VALID,-0.101885,VALID,17.6496,VALID,81,VALID,0.700321,
2000-06-30, 00:01:00,VALID,917.028,VALID,0,VALID,98.1043,VALID,-0.101885,VALID,17.6266,VALID,97,VALID,0.277803,
2000-06-30, 00:02:00,VALID,917.054,VALID,0,VALID,98.1068,VALID,-0.0849042,VALID,17.6427,VALID,164,VALID,0.407278,
2000-06-30, 00:03:00,VALID,917.048,VALID,0,VALID,98.1285,VALID,-0.0849042,VALID,17.6628,VALID,158,VALID,0.197483,
2000-06-30, 00:04:00,VALID,917.045,VALID,0,VALID,98.1157,VALID,-0.101885,VALID,17.6813,VALID,128,VALID,1.01768,
2000-06-30, 00:05:00,VALID,917.03,VALID,0,VALID,98.0636,VALID,-0.0849042,VALID,17.7168,VALID,104,VALID,1.19172,
2000-06-30, 00:06:00,VALID,917.033,VALID,0,VALID,97.9631,VALID,-0.0509425,VALID,17.7461,VALID,330,VALID,0.545703,
2000-06-30, 00:07:00,VALID,917.04,VALID,0,VALID,97.836,VALID,-0.0509425,VALID,17.7493,VALID,207,VALID,0.221217,
2000-06-30, 00:08:00,VALID,917.025,VALID,0,VALID,97.8055,VALID,-0.0679233,VALID,17.7814,VALID,123,VALID,0.705078,
2000-06-30, 00:09:00,VALID,917.033,VALID,0,VALID,97.8233,VALID,-0.0679233,VALID,17.8268,VALID,122,VALID,0.731641,
2000-06-30, 00:10:00,VALID,917.016,VALID,0,VALID,97.7292,VALID,-0.0339617,VALID,17.8591,VALID,139,VALID,0.811098,
2000-06-30, 00:11:00,VALID,916.97,VALID,0,VALID,97.5448,VALID,-0.0679233,VALID,17.8948,VALID,106,VALID,0.506579,
2000-06-30, 00:12:00,VALID,916.968,VALID,0,VALID,97.4303,VALID,-0.0169808,VALID,17.9204,VALID,238,VALID,0.0117188,
2000-06-30, 00:13:00,VALID,916.99,VALID,0,VALID,97.2536,VALID,-0.0339617,VALID,17.9299,VALID,257,VALID,0.348437,
2000-06-30, 00:14:00,VALID,916.973,VALID,0,VALID,97.0387,VALID,-0.0339617,VALID,17.9467,VALID,258,VALID,0.126402,
2000-06-30, 00:15:00,VALID,916.949,VALID,0,VALID,96.8022,VALID,-0.0679233,VALID,17.959,VALID,145,VALID,1.13692,
2000-06-30, 00:16:00,VALID,916.912,VALID,0,VALID,96.6089,VALID,-0.0679233,VALID,18.0272,VALID,76,VALID,0.653906,
2000-06-30, 00:17:00,VALID,916.934,VALID,0,VALID,96.4855,VALID,-0.101885,VALID,18.0489,VALID,115,VALID,0.208789,
2000-06-30, 00:18:00,VALID,916.946,VALID,0,VALID,96.3647,VALID,-0.0679233,VALID,18.0849,VALID,24,VALID,0.51222,
2000-06-30, 00:19:00,VALID,916.939,VALID,0,VALID,96.1511,VALID,-0.0169808,VALID,18.1301,VALID,344,VALID,1.08368,
2000-06-30, 00:20:00,VALID,916.922,VALID,0,VALID,95.9896,VALID,-0.0509425,VALID,18.1982,VALID,93,VALID,0.814453,
2000-06-30, 00:21:00,VALID,916.938,VALID,0,VALID,95.8001,VALID,-0.0509425,VALID,18.2141,VALID,102,VALID,0.256055,
2000-06-30, 00:22:00,VALID,916.907,VALID,0,VALID,95.6793,VALID,-0.0339617,VALID,18.2134,VALID,118,VALID,0.676482,
2000-06-30, 00:23:00,VALID,916.895,VALID,0,VALID,95.5903,VALID,-0.0849042,VALID,18.2498,VALID,7,VALID,1.15275,
2000-06-30, 00:24:00,VALID,916.891,VALID,0,VALID,95.186,VALID,-0.0509425,VALID,18.3211,VALID,82,VALID,1.20234,
2000-06-30, 00:25:00,VALID,916.83,VALID,0,VALID,95.0232,VALID,-0.0849042,VALID,18.3333,VALID,251,VALID,0.471875,
2000-06-30, 00:26:00,VALID,916.823,VALID,0,VALID,95.0092,VALID,0.0849042,VALID,18.3453,VALID,135,VALID,0.557292,
2000-06-30, 00:27:00,VALID,916.8,VALID,0,VALID,95.1364,VALID,0.0679233,VALID,18.3449,VALID,327,VALID,0.410979,
2000-06-30, 00:28:00,VALID,916.787,VALID,0,VALID,94.999,VALID,0.0679233,VALID,18.3449,VALID,299,VALID,0.408203,
2000-06-30, 00:29:00,VALID,916.772,VALID,0,VALID,94.9138,VALID,0.0679233,VALID,18.3677,VALID,10,VALID,1.84238,
2000-06-30, 00:30:00,VALID,916.722,VALID,0,VALID,95.0741,VALID,0.101885,VALID,18.3806,VALID,113,VALID,0.937099,
2000-06-30, 00:31:00,VALID,916.721,VALID,0,VALID,95.1376,VALID,0.0509425,VALID,18.3479,VALID,296,VALID,0.615337,
2000-06-30, 00:32:00,VALID,916.689,VALID,0,VALID,95.1249,VALID,0.0509425,VALID,18.3419,VALID,322,VALID,0.894141,
2000-06-30, 00:33:00,VALID,916.669,VALID,0,VALID,95.4377,VALID,0.0339617,VALID,18.3283,VALID,49,VALID,0.60332,
2000-06-30, 00:34:00,VALID,916.637,VALID,0,VALID,95.6514,VALID,0.0849042,VALID,18.3089,VALID,98,VALID,0.667869,
2000-06-30, 00:35:00,VALID,916.636,VALID,0,VALID,95.8014,VALID,0.0679233,VALID,18.2994,VALID,108,VALID,0.831209,
2000-06-30, 00:36:00,VALID,916.596,VALID,0,VALID,95.8777,VALID,0.0849042,VALID,18.2962,VALID,92,VALID,0.708789,
2000-06-30, 00:37:00,VALID,916.58,VALID,0,VALID,95.837,VALID,0.0509425,VALID,18.2835,VALID,320,VALID,0.0802734,
2000-06-30, 00:38:00,VALID,916.565,VALID,0,VALID,95.8599,VALID,0.0509425,VALID,18.2736,VALID,261,VALID,0.208734,
2000-06-30, 00:39:00,VALID,916.543,VALID,0,VALID,95.9972,VALID,0.0509425,VALID,18.2738,VALID,291,VALID,0.153166,
2000-06-30, 00:40:00,VALID,916.515,VALID,0,VALID,96.1397,VALID,0.0509425,VALID,18.2708,VALID,98,VALID,0.508398,
2000-06-30, 00:41:00,VALID,916.497,VALID,0,VALID,96.2961,VALID,0.0679233,VALID,18.2586,VALID,94,VALID,0.31582,
2000-06-30, 00:42:00,VALID,916.487,VALID,0,VALID,96.5339,VALID,0,VALID,18.239,VALID,105,VALID,0,
2000-06-30, 00:43:00,VALID,916.478,VALID,0,VALID,96.6381,VALID,0,VALID,18.2265,VALID,108,VALID,0.092722,
2000-06-30, 00:44:00,VALID,916.432,VALID,0,VALID,96.6877,VALID,0,VALID,18.2171,VALID,112,VALID,0.0146484,
2000-06-30, 00:45:00,VALID,916.411,VALID,0,VALID,96.7895,VALID,0,VALID,18.1809,VALID,112,VALID,0,
2000-06-30, 00:46:00,VALID,916.361,VALID,0,VALID,96.839,VALID,0.0169808,VALID,18.1719,VALID,121,VALID,0,
2000-06-30, 00:47:00,VALID,916.341,VALID,0,VALID,96.909,VALID,0,VALID,18.1585,VALID,100,VALID,0,
2000-06-30, 00:48:00,VALID,916.298,VALID,0,VALID,96.9891,VALID,0,VALID,18.146,VALID,112,VALID,0,
2000-06-30, 00:49:00,VALID,916.278,VALID,0,VALID,97.0629,VALID,0.0169808,VALID,18.1262,VALID,108,VALID,0,
2000-06-30, 00:50:00,VALID,916.246,VALID,0,VALID,97.1455,VALID,0,VALID,18.1165,VALID,103,VALID,0,
2000-06-30, 00:51:00,VALID,916.246,VALID,0,VALID,97.2078,VALID,0.0169808,VALID,18.1068,VALID,96,VALID,0.451891,
2000-06-30, 00:52:00,VALID,916.226,VALID,0,VALID,97.2956,VALID,0.0169808,VALID,18.1075,VALID,90,VALID,0.829883,
2000-06-30, 00:53:00,VALID,916.219,VALID,0,VALID,97.3986,VALID,-0.0169808,VALID,18.0778,VALID,95,VALID,1.56387,
2000-06-30, 00:54:00,VALID,916.204,VALID,0,VALID,97.4787,VALID,0,VALID,18.0805,VALID,95,VALID,1.51402,
2000-06-30, 00:55:00,VALID,916.171,VALID,0,VALID,97.5054,VALID,0,VALID,18.0838,VALID,95,VALID,1.00123,
2000-06-30, 00:56:00,VALID,916.195,VALID,0,VALID,97.5359,VALID,0.0169808,VALID,18.1103,VALID,101,VALID,0.791406,
2000-06-30, 00:57:00,VALID,916.169,VALID,0,VALID,97.5372,VALID,0,VALID,18.1071,VALID,84,VALID,0.826172,
2000-06-30, 00:58:00,VALID,916.174,VALID,0,VALID,97.5461,VALID,0,VALID,18.1098,VALID,87,VALID,0.426482,
2000-06-30, 00:59:00,VALID,916.146,VALID,0,VALID,97.5537,VALID,0,VALID,18.1133,VALID,89,VALID,1.12171,
2000-06-30, 01:00:00,VALID,916.14,VALID,0,VALID,97.5194,VALID,-0.0169808,VALID,18.117,VALID,82,VALID,1.14668,
2000-06-30, 01:01:00,VALID,916.143,VALID,0,VALID,97.4863,VALID,0,VALID,18.1195,VALID,100,VALID,0.823242,
2000-06-30, 01:02:00,VALID,916.15,VALID,0,VALID,97.4787,VALID,0,VALID,18.1396,VALID,95,VALID,1.23397,
2000-06-30, 01:03:00,VALID,916.132,VALID,0,VALID,97.2282,VALID,0,VALID,18.1096,VALID,74,VALID,1.7428,
2000-06-30, 01:04:00,VALID,916.11,VALID,0,VALID,96.895,VALID,0,VALID,18.1458,VALID,81,VALID,1.89512,
2000-06-30, 01:05:00,VALID,916.112,VALID,0,VALID,96.6241,VALID,0,VALID,18.1756,VALID,88,VALID,1.66211,
2000-06-30, 01:06:00,VALID,916.119,VALID,0,VALID,96.572,VALID,0,VALID,18.1915,VALID,91,VALID,1.4353,
2000-06-30, 01:07:00,VALID,916.118,VALID,0,VALID,96.5046,VALID,0,VALID,18.2012,VALID,69,VALID,1.081,
2000-06-30, 01:08:00,VALID,916.12,VALID,0,VALID,96.4728,VALID,-0.0169808,VALID,18.1781,VALID,78,VALID,0.95,
2000-06-30, 01:09:00,VALID,916.136,VALID,0,VALID,96.3889,VALID,0,VALID,18.155,VALID,69,VALID,1.24434,
2000-06-30, 01:10:00,VALID,916.127,VALID,0,VALID,96.3965,VALID,0,VALID,18.1585,VALID,62,VALID,0.646434,
2000-06-30, 01:11:00,VALID,916.117,VALID,0,VALID,96.38,VALID,0,VALID,18.1719,VALID,75,VALID,0.554071,
2000-06-30, 01:12:00,VALID,916.069,VALID,0,VALID,96.5389,VALID,0,VALID,18.1654,VALID,94,VALID,1.35762,
2000-06-30, 01:13:00,VALID,916.041,VALID,0,VALID,96.5415,VALID,0,VALID,18.1622,VALID,78,VALID,0.850977,
2000-06-30, 01:14:00,VALID,916.054,VALID,0,VALID,96.5326,VALID,0,VALID,18.1555,VALID,39,VALID,0.702324,
2000-06-30, 01:15:00,VALID,916.028,VALID,0,VALID,96.4766,VALID,0,VALID,18.1518,VALID,75,VALID,0.962993,
2000-06-30, 01:16:00,VALID,915.983,VALID,0,VALID,96.4232,VALID,0.0339617,VALID,18.1617,VALID,61,VALID,0.816797,
2000-06-30, 01:17:00,VALID,915.982,VALID,0,VALID,96.4614,VALID,0,VALID,18.1553,VALID,70,VALID,0.995508,
2000-06-30, 01:18:00,VALID,915.954,VALID,0,VALID,96.3406,VALID,0.0169808,VALID,18.1546,VALID,79,VALID,1.04227,
2000-06-30, 01:19:00,VALID,915.932,VALID,0,VALID,96.3317,VALID,0,VALID,18.1811,VALID,67,VALID,0.91838,
2000-06-30, 01:20:00,VALID,915.928,VALID,0,VALID,96.3978,VALID,0.0169808,VALID,18.2003,VALID,91,VALID,0.825391,
2000-06-30, 01:21:00,VALID,915.907,VALID,0,VALID,96.4741,VALID,0,VALID,18.1776,VALID,68,VALID,0.744727,
2000-06-30, 01:22:00,VALID,915.907,VALID,0,VALID,96.5631,VALID,0,VALID,18.1682,VALID,107,VALID,0.192909,
2000-06-30, 01:23:00,VALID,915.89,VALID,0,VALID,96.6686,VALID,0.0169808,VALID,18.1514,VALID,118,VALID,0.072574,
2000-06-30, 01:24:00,VALID,915.893,VALID,0,VALID,96.7844,VALID,0,VALID,18.1617,VALID,111,VALID,0.216797,
2000-06-30, 01:25:00,VALID,915.875,VALID,0,VALID,96.9331,VALID,0,VALID,18.1553,VALID,100,VALID,0,
2000-06-30, 01:26:00,VALID,915.853,VALID,0,VALID,96.9726,VALID,0,VALID,18.1361,VALID,82,VALID,0,
2000-06-30, 01:27:00,VALID,915.829,VALID,0,VALID,97.0412,VALID,0.0169808,VALID,18.1228,VALID,100,VALID,0,
2000-06-30, 01:28:00,VALID,915.804,VALID,0,VALID,97.1264,VALID,0.0169808,VALID,18.1131,VALID,99,VALID,0,
2000-06-30, 01:29:00,VALID,915.793,VALID,0,VALID,97.1887,VALID,0,VALID,18.1064,VALID,122,VALID,0,
2000-06-30, 01:30:00,VALID,915.771,VALID,0,VALID,97.2841,VALID,0.0169808,VALID,18.1001,VALID,106,VALID,0.237981,
2000-06-30, 01:31:00,VALID,915.741,VALID,0,VALID,97.3808,VALID,0.0339617,VALID,18.0967,VALID,94,VALID,0.999383,
2000-06-30, 01:32:00,VALID,915.723,VALID,0,VALID,97.4202,VALID,0.0169808,VALID,18.0875,VALID,98,VALID,1.13359,
2000-06-30, 01:33:00,VALID,915.691,VALID,0,VALID,97.4367,VALID,0,VALID,18.0773,VALID,91,VALID,1.09766,
2000-06-30, 01:34:00,VALID,915.687,VALID,0,VALID,97.4316,VALID,0,VALID,18.075,VALID,100,VALID,0.421675,
2000-06-30, 01:35:00,VALID,915.685,VALID,0,VALID,97.4494,VALID,-0.0169808,VALID,18.0745,VALID,100,VALID,0.61472,
2000-06-30, 01:36:00,VALID,915.67,VALID,0,VALID,97.4481,VALID,0,VALID,18.0649,VALID,92,VALID,1.23711,
2000-06-30, 01:37:00,VALID,915.678,VALID,0,VALID,97.5092,VALID,0,VALID,18.0715,VALID,104,VALID,0.947656,
2000-06-30, 01:38:00,VALID,915.648,VALID,0,VALID,97.5524,VALID,-0.0169808,VALID,18.0649,VALID,96,VALID,1.10897,
2000-06-30, 01:39:00,VALID,915.633,VALID,0,VALID,97.5511,VALID,0,VALID,18.0681,VALID,97,VALID,0.453947,
2000-06-30, 01:40:00,VALID,915.625,VALID,0,VALID,97.5435,VALID,-0.0169808,VALID,18.0649,VALID,104,VALID,0,
2000-06-30, 01:41:00,VALID,915.598,VALID,0,VALID,97.5639,VALID,-0.0339617,VALID,18.0649,VALID,119,VALID,0,
2000-06-30, 01:42:00,VALID,915.578,VALID,0,VALID,97.5626,VALID,-0.0339617,VALID,18.0526,VALID,96,VALID,0,
2000-06-30, 01:43:00,VALID,915.568,VALID,0,VALID,97.56,VALID,-0.0339617,VALID,18.0492,VALID,127,VALID,0,
2000-06-30, 01:44:00,VALID,915.574,VALID,0,VALID,97.6211,VALID,-0.0169808,VALID,18.0685,VALID,98,VALID,0,
2000-06-30, 01:45:00,VALID,915.562,VALID,0,VALID,97.6452,VALID,-0.0679233,VALID,18.0688,VALID,97,VALID,0,
2000-06-30, 01:46:00,VALID,915.55,VALID,0,VALID,97.6452,VALID,-0.0169808,VALID,18.0459,VALID,95,VALID,0.329127,
2000-06-30, 01:47:00,VALID,915.518,VALID,0,VALID,97.63,VALID,-0.0339617,VALID,18.0492,VALID,88,VALID,1.12438,
2000-06-30, 01:48:00,VALID,915.524,VALID,0,VALID,97.5677,VALID,0,VALID,18.0713,VALID,80,VALID,0.401953,
2000-06-30, 01:49:00,VALID,915.534,VALID,0,VALID,97.4392,VALID,-0.0339617,VALID,18.0911,VALID,75,VALID,0.117969,
2000-06-30, 01:50:00,VALID,915.526,VALID,0,VALID,97.3617,VALID,-0.0679233,VALID,18.0914,VALID,79,VALID,0,
2000-06-30, 01:51:00,VALID,915.517,VALID,0,VALID,97.2625,VALID,-0.0339617,VALID,18.1041,VALID,120,VALID,0.247533,
2000-06-30, 01:52:00,VALID,915.505,VALID,0,VALID,97.0883,VALID,-0.0339617,VALID,18.1105,VALID,114,VALID,0.159766,
2000-06-30, 01:53:00,VALID,915.509,VALID,0,VALID,96.9573,VALID,-0.0339617,VALID,18.1168,VALID,104,VALID,0.45625,
2000-06-30, 01:54:00,VALID,915.498,VALID,0,VALID,96.8836,VALID,-0.0339617,VALID,18.1234,VALID,292,VALID,0.264022,
2000-06-30, 01:55:00,VALID,915.492,VALID,0,VALID,96.764,VALID,-0.0679233,VALID,18.123,VALID,233,VALID,0.0984786,
2000-06-30, 01:56:00,VALID,915.478,VALID,0,VALID,96.6636,VALID,0.0509425,VALID,18.1352,VALID,103,VALID,0.474023,
2000-06-30, 01:57:00,VALID,915.468,VALID,0,VALID,96.4805,VALID,0.101885,VALID,18.1509,VALID,72,VALID,0.291406,
2000-06-30, 01:58:00,VALID,915.471,VALID,0,VALID,96.2808,VALID,0.0679233,VALID,18.1574,VALID,84,VALID,0.285457,
2000-06-30, 01:59:00,VALID,915.447,VALID,0,VALID,96.1715,VALID,0.0849042,VALID,18.1668,VALID,83,VALID,0.143092,
2000-06-30, 02:00:00,VALID,915.44,VALID,0,VALID,96.1244,VALID,0.0679233,VALID,18.1864,VALID,87,VALID,0.00195313,
2000-06-30, 02:01:00,VALID,915.456,VALID,0,VALID,96.132,VALID,0.0679233,VALID,18.1929,VALID,87,VALID,0,
2000-06-30, 02:02:00,VALID,915.47,VALID,0,VALID,96.1651,VALID,0.0849042,VALID,18.1802,VALID,87,VALID,0,
2000-06-30, 02:03:00,VALID,915.463,VALID,0,VALID,96.16,VALID,0.0509425,VALID,18.1707,VALID,96,VALID,0,
2000-06-30, 02:04:00,VALID,915.435,VALID,0,VALID,96.2312,VALID,0.0509425,VALID,18.1578,VALID,92,VALID,0.36543,
2000-06-30, 02:05:00,VALID,915.43,VALID,0,VALID,96.2795,VALID,0.0679233,VALID,18.1544,VALID,87,VALID,0.0591797,
2000-06-30, 02:06:00,VALID,915.42,VALID,0,VALID,96.2376,VALID,0.0339617,VALID,18.1514,VALID,115,VALID,0.00120192,
2000-06-30, 02:07:00,VALID,915.412,VALID,0,VALID,96.1689,VALID,0.0679233,VALID,18.1479,VALID,109,VALID,0,
2000-06-30, 02:08:00,VALID,915.42,VALID,0,VALID,96.2185,VALID,0.0339617,VALID,18.1546,VALID,100,VALID,0,
2000-06-30, 02:09:00,VALID,915.4,VALID,0,VALID,96.2439,VALID,0.0679233,VALID,18.1345,VALID,196,VALID,0,
2000-06-30, 02:10:00,VALID,915.38,VALID,0,VALID,96.2172,VALID,0.0169808,VALID,18.1484,VALID,142,VALID,0,
2000-06-30, 02:11:00,VALID,915.394,VALID,0,VALID,96.2287,VALID,-0.0339617,VALID,18.1592,VALID,101,VALID,0.606291,
2000-06-30, 02:12:00,VALID,915.38,VALID,0,VALID,96.3584,VALID,-0.101885,VALID,18.1523,VALID,119,VALID,0.270508,
2000-06-30, 02:13:00,VALID,915.386,VALID,0,VALID,96.4563,VALID,-0.0339617,VALID,18.1336,VALID,122,VALID,0,
2000-06-30, 02:14:00,VALID,915.387,VALID,0,VALID,96.5339,VALID,-0.0679233,VALID,18.1073,VALID,122,VALID,0,
2000-06-30, 02:15:00,VALID,915.398,VALID,0,VALID,96.5898,VALID,-0.0509425,VALID,18.0847,VALID,114,VALID,0,
2000-06-30, 02:16:01,VALID,915.398,VALID,0,VALID,96.647,VALID,-0.0339617,VALID,18.075,VALID,98,VALID,0,
2000-06-30, 02:17:00,VALID,915.376,VALID,0,VALID,96.7182,VALID,0,VALID,18.0489,VALID,125,VALID,0,
2000-06-30, 02:18:00,VALID,915.35,VALID,0,VALID,96.7767,VALID,-0.0169808,VALID,18.0591,VALID,135,VALID,0,
2000-06-30, 02:19:00,VALID,915.334,VALID,0,VALID,96.7627,VALID,-0.0339617,VALID,18.0462,VALID,167,VALID,0,
2000-06-30, 02:20:01,VALID,915.294,VALID,0,VALID,96.8009,VALID,-0.0509425,VALID,18.0266,VALID,182,VALID,0,
2000-06-30, 02:21:00,VALID,915.275,VALID,0,VALID,96.8759,VALID,-0.0169808,VALID,18.0326,VALID,181,VALID,0.129297,
2000-06-30, 02:22:00,VALID,915.255,VALID,0,VALID,96.8467,VALID,-0.0509425,VALID,18.0261,VALID,166,VALID,0.344952,
2000-06-30, 02:23:00,VALID,915.2,VALID,0,VALID,96.6877,VALID,-0.0169808,VALID,18.0429,VALID,84,VALID,0.696957,
2000-06-30, 02:24:00,VALID,915.203,VALID,0,VALID,96.5682,VALID,-0.0169808,VALID,18.0621,VALID,82,VALID,0.891797,
2000-06-30, 02:25:00,VALID,915.182,VALID,0,VALID,96.5542,VALID,-0.0509425,VALID,18.0692,VALID,109,VALID,0.167383,
2000-06-30, 02:26:00,VALID,915.169,VALID,0,VALID,96.525,VALID,-0.0169808,VALID,18.0623,VALID,131,VALID,0,
2000-06-30, 02:27:00,VALID,915.139,VALID,0,VALID,96.4919,VALID,-0.0339617,VALID,18.0556,VALID,200,VALID,0,
2000-06-30, 02:28:01,VALID,915.111,VALID,0,VALID,96.4614,VALID,-0.0169808,VALID,18.0462,VALID,246,VALID,0,
2000-06-30, 02:29:00,VALID,915.103,VALID,0,VALID,96.4398,VALID,-0.0339617,VALID,18.0459,VALID,248,VALID,0,
2000-06-30, 02:30:00,VALID,915.11,VALID,0,VALID,96.3609,VALID,-0.0169808,VALID,18.0489,VALID,251,VALID,0.0991587,
2000-06-30, 02:31:00,VALID,915.088,VALID,0,VALID,96.2986,VALID,-0.0339617,VALID,18.0651,VALID,67,VALID,0.163857,
2000-06-30, 02:32:01,VALID,915.082,VALID,0,VALID,96.2821,VALID,-0.0849042,VALID,18.0914,VALID,256,VALID,0.241992,
2000-06-30, 02:33:00,VALID,915.097,VALID,0,VALID,96.2287,VALID,-0.0339617,VALID,18.0976,VALID,290,VALID,0.0171875,
2000-06-30, 02:34:00,VALID,915.093,VALID,0,VALID,96.2732,VALID,-0.0339617,VALID,18.0914,VALID,294,VALID,0.0134215,
2000-06-30, 02:35:00,VALID,915.118,VALID,0,VALID,96.085,VALID,-0.0169808,VALID,18.0782,VALID,317,VALID,0.737664,
2000-06-30, 02:36:00,VALID,915.125,VALID,0,VALID,95.7493,VALID,-0.0169808,VALID,18.1075,VALID,277,VALID,0.368945,
2000-06-30, 02:37:00,VALID,915.099,VALID,0,VALID,95.3856,VALID,-0.0169808,VALID,18.1396,VALID,131,VALID,0.229687,
2000-06-30, 02:38:00,VALID,915.075,VALID,0,VALID,94.7574,VALID,0,VALID,18.1689,VALID,337,VALID,0,
2000-06-30, 02:39:00,VALID,915.078,VALID,0,VALID,94.3276,VALID,-0.0679233,VALID,18.2238,VALID,291,VALID,0,
2000-06-30, 02:40:01,VALID,915.072,VALID,0,VALID,94.3251,VALID,-0.0339617,VALID,18.269,VALID,57,VALID,0,
2000-06-30, 02:41:00,VALID,915.044,VALID,0,VALID,93.777,VALID,-0.0509425,VALID,18.2623,VALID,351,VALID,0.481641,
2000-06-30, 02:42:00,VALID,915.035,VALID,0,VALID,92.8564,VALID,-0.0169808,VALID,18.3465,VALID,292,VALID,1.11619,
2000-06-30, 02:43:00,VALID,915.001,VALID,0,VALID,91.82,VALID,-0.0849042,VALID,18.4335,VALID,338,VALID,0.931538,
2000-06-30, 02:44:01,VALID,914.985,VALID,0,VALID,92.1875,VALID,-0.0509425,VALID,18.4948,VALID,12,VALID,0.0535156,
2000-06-30, 02:45:00,VALID,914.959,VALID,0,VALID,92.7661,VALID,-0.0169808,VALID,18.4819,VALID,130,VALID,0,
2000-06-30, 02:46:00,VALID,914.931,VALID,0,VALID,92.714,VALID,-0.0849042,VALID,18.4402,VALID,257,VALID,0,
2000-06-30, 02:47:00,VALID,914.912,VALID,0,VALID,92.9238,VALID,-0.0679233,VALID,18.4141,VALID,12,VALID,0.258224,
2000-06-30, 02:48:00,VALID,914.865,VALID,0,VALID,93.1603,VALID,-0.0679233,VALID,18.3984,VALID,32,VALID,0.389258,
2000-06-30, 02:49:00,VALID,914.849,VALID,0,VALID,92.5092,VALID,-0.0849042,VALID,18.3656,VALID,269,VALID,0.193359,
2000-06-30, 02:50:00,VALID,914.803,VALID,0,VALID,93.1158,VALID,-0.0339617,VALID,18.359,VALID,274,VALID,0,
2000-06-30, 02:51:01,VALID,914.787,VALID,0,VALID,93.2964,VALID,-0.101885,VALID,18.3398,VALID,251,VALID,0,
2000-06-30, 02:52:01,VALID,914.75,VALID,0,VALID,93.4222,VALID,-0.0339617,VALID,18.3172,VALID,105,VALID,0.167969,
2000-06-30, 02:53:00,VALID,914.742,VALID,0,VALID,93.6944,VALID,-0.0509425,VALID,18.3015,VALID,43,VALID,0.420703,
2000-06-30, 02:54:00,VALID,914.736,VALID,0,VALID,93.7147,VALID,-0.0679233,VALID,18.2462,VALID,276,VALID,0.0973558,
2000-06-30, 02:55:00,VALID,914.712,VALID,0,VALID,93.4261,VALID,-0.0679233,VALID,18.224,VALID,137,VALID,0.528166,
2000-06-30, 02:56:01,VALID,914.714,VALID,0,VALID,93.0802,VALID,-0.0509425,VALID,18.1913,VALID,159,VALID,0.625781,
2000-06-30, 02:57:00,VALID,914.692,VALID,0,VALID,92.939,VALID,-0.101885,VALID,18.2272,VALID,286,VALID,0.381836,
2000-06-30, 02:58:00,VALID,914.69,VALID,0,VALID,93.1628,VALID,-0.0679233,VALID,18.2335,VALID,101,VALID,0.273237,
2000-06-30, 02:59:00,VALID,914.684,VALID,0,VALID,93.5138,VALID,-0.0679233,VALID,18.2139,VALID,100,VALID,0.0376234,
2000-06-30, 03:00:00,VALID,914.689,VALID,0,VALID,93.6104,VALID,-0.0339617,VALID,18.165,VALID,138,VALID,0.322656,
2000-06-30, 03:01:00,VALID,914.662,VALID,0,VALID,93.9474,VALID,-0.0339617,VALID,18.1525,VALID,104,VALID,0.851367,
2000-06-30, 03:02:00,VALID,914.664,VALID,0,VALID,94.0771,VALID,-0.0169808,VALID,18.1073,VALID,106,VALID,0.44972,
2000-06-30, 03:03:00,VALID,914.648,VALID,0,VALID,94.2323,VALID,-0.0169808,VALID,18.075,VALID,97,VALID,0.422286,
2000-06-30, 03:04:01,VALID,914.643,VALID,0,VALID,94.4077,VALID,-0.0339617,VALID,18.0489,VALID,97,VALID,0.595703,
2000-06-30, 03:05:00,VALID,914.635,VALID,0,VALID,94.4522,VALID,-0.0169808,VALID,18.0298,VALID,217,VALID,0.518555,
2000-06-30, 03:06:00,VALID,914.615,VALID,0,VALID,94.6087,VALID,-0.0339617,VALID,18.0266,VALID,96,VALID,0.346755,
2000-06-30, 03:07:00,VALID,914.602,VALID,0,VALID,94.7511,VALID,-0.0679233,VALID,18.0166,VALID,122,VALID,0.0370066,
2000-06-30, 03:08:01,VALID,914.594,VALID,0,VALID,94.6684,VALID,-0.0339617,VALID,18.0136,VALID,247,VALID,0.202344,
2000-06-30, 03:09:00,VALID,914.554,VALID,0,VALID,93.7312,VALID,-0.0679233,VALID,18.0196,VALID,278,VALID,0.669336,
2000-06-30, 03:10:00,VALID,914.536,VALID,0,VALID,93.1247,VALID,-0.0339617,VALID,18.0976,VALID,307,VALID,0.569912,
2000-06-30, 03:11:00,VALID,914.517,VALID,0,VALID,92.2104,VALID,-0.0169808,VALID,18.2109,VALID,301,VALID,0.645559,
2000-06-30, 03:12:00,VALID,914.516,VALID,0,VALID,92.068,VALID,-0.0169808,VALID,18.272,VALID,308,VALID,0.677344,
2000-06-30, 03:13:00,VALID,914.5,VALID,0,VALID,90.5713,VALID,-0.0509425,VALID,18.3945,VALID,320,VALID,1.83809,
2000-06-30, 03:14:00,VALID,914.477,VALID,0,VALID,90.1059,VALID,-0.0339617,VALID,18.5107,VALID,321,VALID,0.840946,
2000-06-30, 03:15:00,VALID,914.466,VALID,0,VALID,90.2191,VALID,-0.0679233,VALID,18.5398,VALID,303,VALID,0.422081,
2000-06-30, 03:16:01,VALID,914.43,VALID,0,VALID,88.5342,VALID,-0.0849042,VALID,18.5947,VALID,324,VALID,1.95391,
2000-06-30, 03:17:00,VALID,914.424,VALID,0,VALID,87.8984,VALID,-0.0169808,VALID,18.753,VALID,323,VALID,1.7084,
2000-06-30, 03:18:00,VALID,914.4,VALID,0,VALID,87.714,VALID,-0.0169808,VALID,18.8307,VALID,319,VALID,1.30769,
2000-06-30, 03:19:00,VALID,914.386,VALID,0,VALID,87.9721,VALID,-0.0339617,VALID,18.8238,VALID,327,VALID,0.534539,
2000-06-30, 03:20:01,VALID,914.378,VALID,0,VALID,88.0306,VALID,-0.0509425,VALID,18.7952,VALID,317,VALID,0.701563,
2000-06-30, 03:21:00,VALID,914.38,VALID,0,VALID,88.0523,VALID,-0.0509425,VALID,18.7924,VALID,328,VALID,0.813672,
2000-06-30, 03:22:00,VALID,914.374,VALID,0,VALID,89.6341,VALID,-0.0509425,VALID,18.7569,VALID,98,VALID,1.03706,
2000-06-30, 03:23:00,VALID,914.387,VALID,0,VALID,89.9495,VALID,-0.0339617,VALID,18.6429,VALID,95,VALID,0.659539,
2000-06-30, 03:24:00,VALID,914.384,VALID,0,VALID,90.5039,VALID,-0.0339617,VALID,18.5368,VALID,97,VALID,0.160156,
2000-06-30, 03:25:00,VALID,914.372,VALID,0,VALID,90.8333,VALID,-0.0849042,VALID,18.4466,VALID,98,VALID,0,
2000-06-30, 03:26:00,VALID,914.354,VALID,0,VALID,91.3902,VALID,-0.0509425,VALID,18.379,VALID,102,VALID,0.057492,
2000-06-30, 03:27:00,VALID,914.337,VALID,0,VALID,91.8353,VALID,-0.0339617,VALID,18.2752,VALID,353,VALID,0.443873,
2000-06-30, 03:28:01,VALID,914.343,VALID,0,VALID,92.1634,VALID,-0.0339617,VALID,18.1908,VALID,316,VALID,0.0136719,
2000-06-30, 03:29:00,VALID,914.315,VALID,0,VALID,92.4965,VALID,-0.0169808,VALID,18.1493,VALID,50,VALID,0.42793,
2000-06-30, 03:30:00,VALID,914.312,VALID,0,VALID,92.9937,VALID,-0.0679233,VALID,18.0948,VALID,97,VALID,0.777444,
2000-06-30, 03:31:00,VALID,914.301,VALID,0,VALID,93.248,VALID,-0.0169808,VALID,18.0231,VALID,101,VALID,0.133635,
2000-06-30, 03:32:01,VALID,914.277,VALID,0,VALID,93.3027,VALID,-0.0509425,VALID,17.9753,VALID,94,VALID,1.03555,
2000-06-30, 03:33:00,VALID,914.251,VALID,0,VALID,93.6549,VALID,-0.0339617,VALID,17.9165,VALID,101,VALID,0.705078,
2000-06-30, 03:34:00,VALID,914.234,VALID,0,VALID,93.6486,VALID,-0.0169808,VALID,17.8716,VALID,120,VALID,0.544471,